Regional Weather Roundup
Issued by NWS Northern Indiana

Home | Current Version | Previous Version | Text Only | Print | Product List | Glossary Off
Versions: 1 2 3 4 5 6 7 8 9 10 11 12 13 14 15 16 17 18 19 20 21 22 23 24 25 26 27 28 29 30 31 32 33 34 35 36 37 38 39 40 41 42 43 44 45 46 47 48 49 50

000
ASUS43 KIWX 281810
RWRIWX

KIWX WEATHER ROUNDUP
NATIONAL WEATHER SERVICE NORTHERN INDIANA
200 PM EDT SAT MAR 28 2015

NOTE: "FAIR" INDICATES FEW OR NO CLOUDS BELOW 12,000 FEET WITH NO
SIGNIFICANT WEATHER AND/OR OBSTRUCTIONS TO VISIBILITY.

* THESE STATIONS ARE NOT UNDER NWS QUALITY CONTROL. THEY ALSO MAY NOT
  REPORT WEATHER SUCH AS PRECIPITATION OR FOG.

INZ001>027-281900-
NORTHERN INDIANA

CITY           SKY/WX    TMP DP  RH WIND       PRES   REMARKS
GARY*          SUNNY     32   7  34 NE14      30.36F WCI  22
VALPARAISO     SUNNY     32   4  30 SW5       30.32F WCI  27
6HR MIN TEMP:  14; 6HR MAX TEMP:  33;

MICHIGAN CITY* SUNNY     30   7  37 NW7       30.34F WCI  23
LAPORTE*       SUNNY     34   9  34 NE3       30.32F
6HR MIN TEMP:  15; 6HR MAX TEMP:  34;

KNOX*            N/A     32 -17  11 E6        30.32F WCI  26
SOUTH BEND     SUNNY     33   6  32 VRB3      30.33S
6HR MIN TEMP:  13; 6HR MAX TEMP:  33;

ELKHART*       SUNNY     32   3  29 N6        30.33S WCI  26
GOSHEN         SUNNY     32   6  33 VRB6      30.31S WCI  26
6HR MIN TEMP:  14; 6HR MAX TEMP:  32;

MONTICELLO*    SUNNY     32  11  41 CALM      30.32F
6HR MIN TEMP:  18; 6HR MAX TEMP:  32;

LOGANSPORT*    SUNNY     32  10  40 S5        30.33S WCI  27
ROCHESTER*     SUNNY     34   9  35 SE3       30.32F
WARSAW*        SUNNY     32  10  40 N6        30.31F WCI  26
ANGOLA*        SUNNY     30   9  40 VRB5      30.29F WCI  25
FORT WAYNE     MOSUNNY   30   7  37 N7        30.31F WCI  23
6HR MIN TEMP:  17; 6HR MAX TEMP:  31;

HUNTINGTON*    SUNNY     30   3  32 NE3       30.32S
6HR MIN TEMP:  17; 6HR MAX TEMP:  31;

PERU/GRISSOM   SUNNY     31   8  38 VRB2      30.31S
6HR MIN TEMP:  17; 6HR MAX TEMP:  31;

MARION*        SUNNY     30  10  43 NE3       30.32S
6HR MIN TEMP:  -9; 6HR MAX TEMP:  69;


$$
INZ028>050-281900-
CENTRAL INDIANA

CITY           SKY/WX    TMP DP  RH WIND       PRES   REMARKS
LAFAYETTE      SUNNY     32   8  36 CALM      30.33F
6HR MIN TEMP:  17; 6HR MAX TEMP:  33;

KOKOMO*          N/A     34  12  40 N6        30.32S WCI  29
6HR MIN TEMP:  18; 6HR MAX TEMP:  34;

MUNCIE*        SUNNY     30  11  45 NE10      30.30F WCI  21
6HR MIN TEMP:  18; 6HR MAX TEMP:  30;

INDIANAPOLIS   MOSUNNY   34  10  37 VRB5      30.30S WCI  30
6HR MIN TEMP:  19; 6HR MAX TEMP:  34;


$$
MIZ043>046-050>051-056>058-064>065-071>073-077>080-281900-
SOUTHWEST LOWER MICHIGAN

CITY           SKY/WX    TMP DP  RH WIND       PRES   REMARKS
BATTLE CREEK   SUNNY     32   4  30 W7        30.30F WCI  26
6HR MIN TEMP:  13; 6HR MAX TEMP:  32;

BENTON HARBOR  SUNNY     26  10  50 NW8       30.34F WCI  18
6HR MIN TEMP:  10; 6HR MAX TEMP:  27;

COLDWATER*     SUNNY     32   5  32 NW3       30.29F
6HR MIN TEMP:  13; 6HR MAX TEMP:  32;

HILLSDALE*     SUNNY     31   5  33 NW5       30.26F WCI  26
6HR MIN TEMP:  13; 6HR MAX TEMP:  31;

HOLLAND        SUNNY     30   8  39 VRB6      30.33F WCI  24
6HR MIN TEMP:  15; 6HR MAX TEMP:  31;

GRAND RAPIDS   SUNNY     30   3  31 VRB5      30.31F WCI  25
6HR MIN TEMP:  14; 6HR MAX TEMP:  32;

KALAMAZOO      SUNNY     33   2  26 NE7       30.31F WCI  27
6HR MIN TEMP:  13; 6HR MAX TEMP:  33;

STURGIS*       SUNNY     28   5  37 E5        30.30S WCI  23
THREE RIVERS*  FAIR      31   4  30 CALM      30.31F

$$
OHZ001>008-015>018-024>025-281900-
NORTHWEST OHIO

CITY           SKY/WX    TMP DP  RH WIND       PRES   REMARKS
WAUSEON*       FAIR      32  12  43 NW9       30.29F WCI  24
DEFIANCE       SUNNY     32  13  45 VRB5      30.31F WCI  27
6HR MIN TEMP:  16; 6HR MAX TEMP:  32;

FINDLAY        CLOUDY    30  11  45 NW10      30.28F WCI  21
6HR MIN TEMP:  17; 6HR MAX TEMP:  31;

TOLEDO EXPRESS MOSUNNY   30  10  43 NW9       30.29F WCI  22
6HR MIN TEMP:  15; 6HR MAX TEMP:  30;

TOLEDO METCALF MOSUNNY   30  10  43 VRB5      30.31S WCI  25
6HR MIN TEMP:  19; 6HR MAX TEMP:  31;

LIMA           PTSUNNY   29  12  49 VRB5G16   30.28S WCI  24
6HR MIN TEMP:  18; 6HR MAX TEMP:  29;


$$
AND FOR LAKE MICHIGAN COASTAL AND OPEN LAKE BUOY OBSERVATIONS

STATION/POSITION TEMP    WIND        PRES    VSBY  WAVE
                 AIR SEA DIR/SP/G                  HT/PER
                 (F)     (DEG/KT/KT) (MB)    (MI)  (FT/S)
CALUMET HARBOR    27      40/  7/ 11 1026.8R
MICHIGAN CITY     24     350/ 11/ 13   N/A
BURNS HARBOR      24      20/  7/ 11 1028.4R
SAINT JOSEPH      25     330/  5/  7 1028.1F

$$
&&


USA.gov is the U.S. government's official web portal to all federal, state and local government web resources and services.